FW8200 Weather Reports


Display with metric or nautical units.
time (UTC)temp
F
wind
direction
speed
MPH
gust
MPH
rain 1hr
in
rain 24hr
in
rain mn
in
humidity
%
barometer
mb
20260906180904 104 223 0.0 1.0 0.00 0.00 0.00 37 1012.1
20260906180359 104 224 0.0 1.0 0.00 0.00 0.00 37 1012.4
20260906175856 105 233 1.0 1.0 0.00 0.00 0.00 36 1012.7
20260906175352 106 243 0.0 3.0 0.00 0.00 0.00 35 1012.7
20260906174851 104 208 1.0 1.0 0.00 0.00 0.00 37 1012.9
20260906174350 104 223 0.0 1.0 0.00 0.00 0.00 37 1013.0
20260906173845 103 280 1.0 2.0 0.00 0.00 0.00 37 1013.2
20260906173341 102 278 1.0 2.0 0.00 0.00 0.00 38 1013.3
20260906172840 100 230 0.0 1.0 0.00 0.00 0.00 41 1013.5
20260906172336 101 291 0.0 1.0 0.00 0.00 0.00 40 1013.4
20260906171831 101 291 0.0 2.0 0.00 0.00 0.00 39 1013.6
20260906171326 101 242 0.0 1.0 0.00 0.00 0.00 40 1013.6
20260906170822 99 211 1.0 1.0 0.00 0.00 0.00 42 1013.6
20260906170318 100 211 1.0 2.0 0.00 0.00 0.00 43 1013.9
20260906165814 100 211 1.0 2.0 0.00 0.00 0.00 42 1013.9
20260906165314 100 211 1.0 2.0 0.00 0.00 0.00 43 1013.9
20260906164814 100 215 1.0 1.0 0.00 0.00 0.00 43 1013.8
20260906164308 99 211 0.0 1.0 0.00 0.00 0.00 45 1013.7
20260906163804 99 209 1.0 2.0 0.00 0.00 0.00 46 1013.8
20260906163300 98 211 0.0 1.0 0.00 0.00 0.00 46 1013.9
20260906162758 98 209 1.0 2.0 0.00 0.00 0.00 48 1014.4
20260906162256 98 215 1.0 2.0 0.00 0.00 0.00 47 1014.1
20260906161757 97 211 0.0 1.0 0.00 0.00 0.00 49 1014.3
20260906161256 96 209 1.0 2.0 0.00 0.00 0.00 51 1014.3
20260906160754 95 210 1.0 2.0 0.00 0.00 0.00 51 1014.3
20260906160249 94 208 1.0 2.0 0.00 0.00 0.00 55 1014.1
20260906155747 94 210 1.0 2.0 0.00 0.00 0.00 55 1014.3
20260906155242 93 226 1.0 1.0 0.00 0.00 0.00 55 1014.3
20260906154737 92 201 1.0 1.0 0.00 0.00 0.00 57 1014.1
20260906154232 92 200 1.0 2.0 0.00 0.00 0.00 59 1014.1
20260906153731 92 203 2.0 2.0 0.00 0.00 0.00 59 1013.9
20260906153225 92 205 1.0 2.0 0.00 0.00 0.00 59 1013.9
20260906152720 90 205 1.0 2.0 0.00 0.00 0.00 61 1014.0
20260906152215 91 209 2.0 2.0 0.00 0.00 0.00 61 1014.0
20260906151709 90 210 1.0 2.0 0.00 0.00 0.00 60 1013.9
20260906151205 89 223 0.0 2.0 0.00 0.00 0.00 63 1014.3
20260906150701 89 221 1.0 1.0 0.00 0.00 0.00 63 1014.1
20260906150156 89 215 1.0 2.0 0.00 0.00 0.00 64 1014.0
20260906145654 88 216 0.0 1.0 0.00 0.00 0.00 65 1014.0
20260906145149 87 210 1.0 2.0 0.00 0.00 0.00 65 1014.0
20260906144649 87 219 1.0 2.0 0.00 0.00 0.00 67 1014.1
20260906144144 87 200 1.0 2.0 0.00 0.00 0.00 67 1014.0
20260906143643 86 202 1.0 3.0 0.00 0.00 0.00 67 1013.7
20260906143141 86 200 1.0 2.0 0.00 0.00 0.00 68 1014.0
20260906142639 85 200 2.0 3.0 0.00 0.00 0.00 69 1013.8
20260906142135 85 199 3.0 3.0 0.00 0.00 0.00 70 1013.8
20260906141634 84 204 1.0 3.0 0.00 0.00 0.00 68 1014.0
20260906141129 84 226 1.0 3.0 0.00 0.00 0.00 69 1013.8
20260906140628 84 209 1.0 3.0 0.00 0.00 0.00 70 1014.1
20260906140123 83 203 2.0 3.0 0.00 0.00 0.00 71 1014.0
20260906135621 83 234 1.0 2.0 0.00 0.00 0.00 71 1013.9
20260906135116 83 210 1.0 2.0 0.00 0.00 0.00 71 1014.0
20260906134612 83 231 0.0 2.0 0.00 0.00 0.00 71 1013.8
20260906134107 82 246 0.0 1.0 0.00 0.00 0.00 72 1013.7
20260906133603 82 245 0.0 1.0 0.00 0.00 0.00 73 1013.6
20260906133057 82 216 1.0 2.0 0.00 0.00 0.00 74 1013.6
20260906132552 81 217 1.0 2.0 0.00 0.00 0.00 75 1013.4
20260906132048 81 223 0.0 1.0 0.00 0.00 0.00 75 1013.6
20260906131543 80 222 0.0 2.0 0.00 0.00 0.00 76 1013.5
20260906131038 80 199 3.0 3.0 0.00 0.00 0.00 75 1013.6
20260906130538 79 212 1.0 3.0 0.00 0.00 0.00 76 1013.5
20260906130033 77 245 0.0 1.0 0.00 0.00 0.00 80 1013.2
20260906125531 77 245 0.0 1.0 0.00 0.00 0.00 83 1013.3
20260906125031 76 245 0.0 0.0 0.00 0.00 0.00 84 1013.4
20260906124526 75 245 0.0 0.0 0.00 0.00 0.00 86 1013.2
20260906124021 75 245 0.0 0.0 0.00 0.00 0.00 87 1013.1
20260906123520 75 245 0.0 0.0 0.00 0.00 0.00 87 1013.2
20260906123015 74 245 0.0 0.0 0.00 0.00 0.00 88 1013.0
20260906122509 74 245 0.0 0.0 0.00 0.00 0.00 88 1012.9
20260906122006 74 245 0.0 0.0 0.00 0.00 0.00 89 1013.0
20260906121502 74 245 0.0 0.0 0.00 0.00 0.00 89 1012.9
20260906120958 74 245 0.0 0.0 0.00 0.00 0.00 89 1012.8
20260906120453 74 245 0.0 0.0 0.00 0.00 0.00 90 1012.7
20260906115949 74 245 0.0 0.0 0.00 0.00 0.00 91 1012.8
20260906115444 74 245 0.0 0.0 0.00 0.00 0.00 91 1012.6
20260906114944 74 245 0.0 0.0 0.00 0.00 0.00 91 1012.8
20260906114438 74 245 0.0 0.0 0.00 0.00 0.00 91 1012.8
20260906113935 74 245 0.0 0.0 0.00 0.00 0.00 92 1012.7
20260906113433 74 245 0.0 0.0 0.00 0.00 0.00 92 1012.9
20260906112929 74 245 0.0 0.0 0.00 0.00 0.00 92 1012.9
20260906112424 74 245 0.0 0.0 0.00 0.00 0.00 91 1012.7
20260906111920 74 245 0.0 0.0 0.00 0.00 0.00 91 1012.6
20260906111419 74 245 0.0 0.0 0.00 0.00 0.00 91 1012.5
20260906110914 75 245 0.0 0.0 0.00 0.00 0.00 91 1012.8
20260906110409 75 245 0.0 0.0 0.00 0.00 0.00 91 1012.6
20260906105909 75 245 0.0 0.0 0.00 0.00 0.00 91 1012.5
20260906105404 75 245 0.0 0.0 0.00 0.00 0.00 91 1012.8
20260906104900 75 245 0.0 0.0 0.00 0.00 0.00 91 1012.6
20260906104358 75 245 0.0 0.0 0.00 0.00 0.00 90 1012.5
20260906103857 75 245 0.0 0.0 0.00 0.00 0.00 90 1012.5
20260906103356 75 245 0.0 0.0 0.00 0.00 0.00 90 1012.5
20260906102852 75 245 0.0 0.0 0.00 0.00 0.00 90 1012.4
20260906102351 75 245 0.0 0.0 0.00 0.00 0.00 90 1012.2
20260906101846 75 245 0.0 0.0 0.00 0.00 0.00 90 1012.3
20260906101341 75 245 0.0 0.0 0.00 0.00 0.00 90 1012.5
20260906100837 76 245 0.0 0.0 0.00 0.00 0.00 89 1012.4
20260906100336 75 245 0.0 0.0 0.00 0.00 0.00 89 1012.5
20260906095831 76 245 0.0 0.0 0.00 0.00 0.00 88 1012.4
20260906095327 76 245 0.0 0.0 0.00 0.00 0.00 88 1012.3
20260906094826 76 245 0.0 0.0 0.00 0.00 0.00 88 1012.3
20260906094321 76 245 0.0 0.0 0.00 0.00 0.00 88 1012.2
20260906093817 76 245 0.0 0.0 0.00 0.00 0.00 87 1012.1
20260906093312 76 245 0.0 0.0 0.00 0.00 0.00 87 1012.1
20260906092802 76 245 0.0 0.0 0.00 0.00 0.00 87 1011.9
20260906092305 76 245 0.0 0.0 0.00 0.00 0.00 86 1012.1
20260906091758 76 245 0.0 0.0 0.00 0.00 0.00 86 1012.2
20260906091254 77 245 0.0 0.0 0.00 0.00 0.00 85 1011.9
20260906090750 77 245 0.0 0.0 0.00 0.00 0.00 85 1012.1
20260906090248 77 245 0.0 0.0 0.00 0.00 0.00 85 1012.1
20260906085748 77 245 0.0 1.0 0.00 0.00 0.00 85 1012.0
20260906085242 77 245 0.0 0.0 0.00 0.00 0.00 84 1012.1
20260906084737 77 245 0.0 0.0 0.00 0.00 0.00 83 1012.0
20260906084236 77 245 0.0 0.0 0.00 0.00 0.00 83 1011.9
20260906083731 77 245 0.0 0.0 0.00 0.00 0.00 83 1011.8
20260906083227 77 245 0.0 0.0 0.00 0.00 0.00 83 1012.0
20260906082721 77 245 0.0 0.0 0.00 0.00 0.00 83 1011.8
20260906082217 77 245 0.0 1.0 0.00 0.00 0.00 84 1011.6
20260906081713 77 245 0.0 1.0 0.00 0.00 0.00 84 1011.8
20260906081208 77 245 0.0 0.0 0.00 0.00 0.00 84 1011.6
20260906080705 77 245 0.0 0.0 0.00 0.00 0.00 83 1011.8
20260906080200 77 245 0.0 0.0 0.00 0.00 0.00 84 1011.8
20260906075700 78 245 0.0 1.0 0.00 0.00 0.00 84 1011.7
20260906075155 78 245 0.0 1.0 0.00 0.00 0.00 84 1011.6
20260906074650 78 245 0.0 1.0 0.00 0.00 0.00 84 1011.6
20260906074149 78 245 0.0 0.0 0.00 0.00 0.00 84 1011.7
20260906073644 78 245 0.0 0.0 0.00 0.00 0.00 83 1011.8
20260906073139 79 245 0.0 0.0 0.00 0.00 0.00 83 1011.7
20260906072634 79 245 0.0 0.0 0.00 0.00 0.00 82 1011.6
20260906072130 80 245 0.0 0.0 0.00 0.00 0.00 82 1011.9
20260906071627 79 245 0.0 0.0 0.00 0.00 0.00 80 1011.9
20260906071127 79 245 0.0 1.0 0.00 0.00 0.00 80 1011.9
20260906070623 80 245 1.0 1.0 0.00 0.00 0.00 81 1011.9
20260906070118 80 245 0.0 0.0 0.00 0.00 0.00 80 1012.0
20260906065618 80 245 0.0 1.0 0.00 0.00 0.00 79 1011.9
20260906065114 80 245 0.0 1.0 0.00 0.00 0.00 80 1011.7
20260906064609 80 245 0.0 0.0 0.00 0.00 0.00 80 1011.9
20260906064058 80 245 0.0 1.0 0.00 0.00 0.00 81 1011.9
20260906063553 80 245 0.0 0.0 0.00 0.00 0.00 80 1011.7
20260906063049 81 245 0.0 0.0 0.00 0.00 0.00 80 1012.0
20260906062545 81 245 0.0 1.0 0.00 0.00 0.00 79 1011.8
20260906062038 81 245 0.0 1.0 0.00 0.00 0.00 80 1011.9
20260906061535 81 245 0.0 1.0 0.00 0.00 0.00 81 1011.9
20260906061034 82 244 0.0 0.0 0.00 0.00 0.00 80 1012.1
20260906060531 82 244 0.0 0.0 0.00 0.00 0.00 79 1012.0
20260906060028 81 244 0.0 0.0 0.00 0.00 0.00 77 1012.2
20260906055523 82 244 0.0 1.0 0.00 0.00 0.00 78 1012.4
20260906055018 82 244 0.0 0.0 0.00 0.00 0.00 78 1012.2
20260906054518 82 244 0.0 1.0 0.00 0.00 0.00 78 1012.2
20260906054014 81 244 0.0 1.0 0.00 0.00 0.00 78 1012.2
20260906053510 81 232 0.0 2.0 0.00 0.00 0.00 80 1012.1
20260906053005 81 197 0.0 0.0 0.00 0.00 0.00 79 1012.0
20260906052501 81 196 0.0 0.0 0.00 0.00 0.00 80 1012.1
20260906051958 81 196 1.0 1.0 0.00 0.00 0.00 80 1012.2
20260906051453 80 196 0.0 1.0 0.00 0.00 0.00 79 1012.2
20260906050949 81 243 1.0 1.0 0.00 0.00 0.00 83 1012.2
20260906050448 82 268 1.0 1.0 0.00 0.00 0.00 83 1011.9
20260906045947 81 268 0.0 0.0 0.00 0.00 0.00 82 1012.0
20260906045446 82 268 0.0 1.0 0.00 0.00 0.00 83 1012.1
20260906044943 82 268 0.0 0.0 0.00 0.00 0.00 83 1012.1
20260906044438 81 268 0.0 0.0 0.00 0.00 0.00 81 1011.9
20260906043933 81 268 0.0 0.0 0.00 0.00 0.00 80 1012.0
20260906043429 81 268 0.0 0.0 0.00 0.00 0.00 80 1012.0
20260906042925 81 268 0.0 0.0 0.00 0.00 0.00 80 1012.3
20260906042424 81 268 0.0 0.0 0.00 0.00 0.00 80 1012.1
20260906041919 81 268 0.0 0.0 0.00 0.00 0.00 80 1012.2
20260906041415 81 268 0.0 0.0 0.00 0.00 0.00 80 1012.2
20260906040914 81 268 0.0 0.0 0.00 0.00 0.00 79 1012.1
20260906040410 81 268 0.0 0.0 0.00 0.00 0.00 78 1012.2
20260906035905 81 268 1.0 1.0 0.00 0.00 0.00 79 1012.1
20260906035401 81 268 0.0 0.0 0.00 0.00 0.00 79 1012.0
20260906034855 81 268 0.0 0.0 0.00 0.00 0.00 78 1012.0
20260906034350 81 268 0.0 0.0 0.00 0.00 0.00 79 1011.9
20260906033846 81 268 0.0 0.0 0.00 0.00 0.00 80 1011.9
20260906033345 82 268 0.0 0.0 0.00 0.00 0.00 81 1011.8
20260906032842 82 268 0.0 0.0 0.00 0.00 0.00 80 1011.6
20260906032337 82 268 0.0 0.0 0.00 0.00 0.00 80 1011.9
20260906031832 82 268 0.0 0.0 0.00 0.00 0.00 80 1011.8
20260906031328 82 268 0.0 0.0 0.00 0.00 0.00 81 1011.7
20260906030827 82 268 0.0 0.0 0.00 0.00 0.00 80 1011.7
20260906030323 82 268 0.0 0.0 0.00 0.00 0.00 79 1011.9
20260906025817 83 268 0.0 0.0 0.00 0.00 0.00 79 1011.7
20260906025311 83 268 0.0 0.0 0.00 0.00 0.00 79 1011.5
20260906024810 83 268 0.0 0.0 0.00 0.00 0.00 78 1011.6
20260906024309 83 268 0.0 0.0 0.00 0.00 0.00 78 1011.3
20260906023805 84 268 0.0 0.0 0.00 0.00 0.00 78 1011.3
20260906023300 84 268 0.0 0.0 0.00 0.00 0.00 78 1011.2
20260906022756 84 268 0.0 0.0 0.00 0.00 0.00 78 1011.3
20260906022251 85 268 0.0 0.0 0.00 0.00 0.00 77 1011.3
20260906021747 85 268 0.0 0.0 0.00 0.00 0.00 76 1011.2
20260906021246 85 268 0.0 0.0 0.00 0.00 0.00 74 1011.2
20260906020741 85 268 0.0 1.0 0.00 0.00 0.00 71 1011.2
20260906020240 85 268 0.0 0.0 0.00 0.00 0.00 70 1010.9
20260906015735 85 268 0.0 0.0 0.00 0.00 0.00 70 1010.9
20260906015234 86 268 0.0 0.0 0.00 0.00 0.00 71 1010.8
20260906014729 86 268 0.0 0.0 0.00 0.00 0.00 71 1011.0
20260906014224 87 268 0.0 0.0 0.00 0.00 0.00 70 1010.6
20260906013720 87 268 0.0 0.0 0.00 0.00 0.00 68 1010.6
20260906013220 87 268 0.0 1.0 0.00 0.00 0.00 67 1010.6
20260906012715 87 268 0.0 0.0 0.00 0.00 0.00 66 1010.6
20260906012210 88 268 0.0 0.0 0.00 0.00 0.00 62 1010.7
20260906011705 88 268 0.0 0.0 0.00 0.00 0.00 60 1010.5
20260906011159 89 268 0.0 0.0 0.00 0.00 0.00 59 1010.5
20260906010655 89 268 0.0 0.0 0.00 0.00 0.00 58 1010.6
20260906010152 89 268 0.0 1.0 0.00 0.00 0.00 57 1010.4
20260906005651 90 268 0.0 0.0 0.00 0.00 0.00 56 1010.6
20260906005150 91 268 0.0 0.0 0.00 0.00 0.00 54 1010.3
20260906004649 91 268 0.0 0.0 0.00 0.00 0.00 54 1010.3
20260906004144 91 268 0.0 0.0 0.00 0.00 0.00 53 1010.3
20260906003640 92 268 0.0 1.0 0.00 0.00 0.00 52 1010.5
20260906003135 93 268 0.0 1.0 0.00 0.00 0.00 52 1010.3
20260906002630 93 268 0.0 1.0 0.00 0.00 0.00 51 1010.3
20260906002125 94 268 0.0 1.0 0.00 0.00 0.00 49 1010.5
20260906001621 94 268 1.0 1.0 0.00 0.00 0.00 49 1010.5
20260906001120 95 268 1.0 1.0 0.00 0.00 0.00 48 1010.4
20260906000616 95 268 1.0 1.0 0.00 0.00 0.00 47 1010.5
20260906000111 96 268 1.0 1.0 0.00 0.00 0.00 46 1010.6
20260905235610 97 269 0.0 1.0 0.00 0.00 0.00 44 1010.5
20260905235105 98 269 0.0 1.0 0.00 0.00 0.00 43 1010.5
20260905234601 99 269 1.0 1.0 0.00 0.00 0.00 43 1010.4
20260905234056 100 269 0.0 1.0 0.00 0.00 0.00 41 1010.5
20260905233555 101 269 0.0 0.0 0.00 0.00 0.00 39 1010.4
20260905233050 101 269 0.0 1.0 0.00 0.00 0.00 39 1010.4
20260905232546 102 269 1.0 1.0 0.00 0.00 0.00 38 1010.4
20260905232042 103 269 1.0 1.0 0.00 0.00 0.00 37 1010.3
20260905231536 103 262 1.0 1.0 0.00 0.00 0.00 35 1010.6
20260905231033 102 238 0.0 0.0 0.00 0.00 0.00 37 1010.4
20260905230532 102 238 0.0 1.0 0.00 0.00 0.00 38 1010.5
20260905230031 101 242 0.0 0.0 0.00 0.00 0.00 38 1010.4
20260905225525 102 242 1.0 1.0 0.00 0.00 0.00 40 1010.4
20260905225020 102 242 1.0 1.0 0.00 0.00 0.00 38 1010.6
20260905224515 102 242 0.0 1.0 0.00 0.00 0.00 39 1010.3
20260905224014 101 242 0.0 2.0 0.00 0.00 0.00 39 1010.3
20260905223513 104 294 1.0 1.0 0.00 0.00 0.00 36 1010.5
20260905223008 106 297 1.0 2.0 0.00 0.00 0.00 34 1010.5
20260905222508 105 297 0.0 0.0 0.00 0.00 0.00 36 1010.4
20260905222003 105 296 0.0 1.0 0.00 0.00 0.00 36 1010.5
20260905221459 106 297 0.0 0.0 0.00 0.00 0.00 36 1010.5
20260905220955 104 297 0.0 1.0 0.00 0.00 0.00 35 1010.7
20260905220451 104 297 1.0 2.0 0.00 0.00 0.00 36 1010.6
20260905215950 103 295 1.0 2.0 0.00 0.00 0.00 37 1010.7
20260905215446 102 295 0.0 0.0 0.00 0.00 0.00 38 1010.7
20260905214942 103 295 0.0 0.0 0.00 0.00 0.00 38 1010.8
20260905214438 104 295 0.0 0.0 0.00 0.00 0.00 36 1010.8
20260905213937 103 295 1.0 1.0 0.00 0.00 0.00 37 1010.6
20260905213434 104 294 0.0 3.0 0.00 0.00 0.00 37 1011.0
20260905212929 104 202 1.0 1.0 0.00 0.00 0.00 39 1011.0
20260905212424 104 202 3.0 3.0 0.00 0.00 0.00 37 1010.9
20260905211923 104 202 2.0 2.0 0.00 0.00 0.00 39 1011.2
20260905211418 102 202 1.0 1.0 0.00 0.00 0.00 38 1011.3
20260905210909 102 192 3.0 3.0 0.00 0.00 0.00 40 1011.1
20260905210409 102 202 1.0 2.0 0.00 0.00 0.00 39 1011.2
20260905205908 102 217 1.0 2.0 0.00 0.00 0.00 39 1011.2
20260905205403 102 195 3.0 5.0 0.00 0.00 0.00 38 1011.4
20260905204902 102 201 4.0 7.0 0.00 0.00 0.00 38 1011.5
20260905204358 104 252 1.0 5.0 0.00 0.00 0.00 36 1011.7
20260905203857 105 302 1.0 2.0 0.00 0.00 0.00 35 1011.6
20260905203353 104 302 0.0 2.0 0.00 0.00 0.00 36 1011.8
20260905202848 104 302 0.0 2.0 0.00 0.00 0.00 37 1011.5
20260905202343 104 260 1.0 1.0 0.00 0.00 0.00 37 1011.9
20260905201839 104 203 0.0 1.0 0.00 0.00 0.00 38 1012.1
20260905201334 102 202 1.0 2.0 0.00 0.00 0.00 40 1012.1
20260905200834 101 196 2.0 3.0 0.00 0.00 0.00 41 1012.0
20260905200331 102 205 3.0 3.0 0.00 0.00 0.00 40 1012.0
20260905195828 103 206 3.0 3.0 0.00 0.00 0.00 41 1012.2
20260905195323 104 283 1.0 1.0 0.00 0.00 0.00 40 1012.1
20260905194819 104 278 1.0 2.0 0.00 0.00 0.00 37 1012.3
20260905194319 104 214 1.0 2.0 0.00 0.00 0.00 39 1012.4
20260905193818 102 191 0.0 2.0 0.00 0.00 0.00 40 1012.4
20260905193313 102 191 3.0 6.0 0.00 0.00 0.00 40 1012.4
20260905192808 102 202 1.0 1.0 0.00 0.00 0.00 41 1012.5
20260905192306 101 202 1.0 2.0 0.00 0.00 0.00 39 1012.7
20260905191803 101 196 1.0 5.0 0.00 0.00 0.00 40 1012.7
20260905191302 102 196 3.0 5.0 0.00 0.00 0.00 42 1012.9
20260905190801 104 270 2.0 3.0 0.00 0.00 0.00 38 1012.8
20260905190301 101 288 1.0 5.0 0.00 0.00 0.00 40 1012.8
20260905185759 101 198 3.0 3.0 0.00 0.00 0.00 42 1013.1
20260905185249 100 197 3.0 3.0 0.00 0.00 0.00 42 1013.2
20260905184748 101 187 5.0 7.0 0.00 0.00 0.00 42 1012.9
20260905184242 102 290 0.0 1.0 0.00 0.00 0.00 39 1013.3
20260905183741 101 215 3.0 3.0 0.00 0.00 0.00 40 1013.2
20260905183237 102 239 1.0 2.0 0.00 0.00 0.00 40 1013.4
20260905182731 101 210 2.0 2.0 0.00 0.00 0.00 42 1013.6
20260905182230 100 210 2.0 3.0 0.00 0.00 0.00 42 1013.6
20260905181726 100 209 2.0 3.0 0.00 0.00 0.00 41 1013.6